264  
ASUS41 KRLX 010410  
RWRRLX  
WEST VIRGINIA REGIONAL WEATHER ROUNDUP  
NATIONAL WEATHER SERVICE CHARLESTON WV  
1200 AM EDT MON MAY 01 2017  
 
NOTE: "FAIR" INDICATES FEW OR NO CLOUDS BELOW 12,000 FEET WITH NO  
SIGNIFICANT WEATHER AND/OR S TO VISIBILITY
.  
 
WVZ003-010500-  
NORTHERN PANHANDLE OF WEST VIRGINIA  
 
CITY SKY/WX TMP DP RH WIND PRES REMARKS
 
WHEELING CLOUDY 76 56 49 S14 29.86F  

 
 
WVZ009-010500-  
NORTHWEST WEST VIRGINIA  
 
CITY SKY/WX TMP DP RH WIND PRES REMARKS
 
PARKERSBURG MOCLDY 77 58 51 S8 29.89F  

 
 
WVZ006-010500-  
WESTERN WEST VIRGINIA  
 
CITY SKY/WX TMP DP RH WIND PRES REMARKS
 
HUNTINGTON CLOUDY 79 52 38 S9 29.86F  

 
 
WVZ015-010500-  
WEST CENTRAL WEST VIRGINIA  
 
CITY SKY/WX TMP DP RH WIND PRES REMARKS
 
CHARLESTON MOCLDY 76 54 46 S7 29.90F  

 
 
WVZ022-031-010500-  
NORTH CENTRAL WEST VIRGINIA  
 
CITY SKY/WX TMP DP RH WIND PRES REMARKS
 
CLARKSBURG CLEAR 76 54 46 S8 29.92F  
MORGANTOWN CLEAR 76 55 48 S5 29.93S  

 
 
WVZ025-035-042-045-010500-  
SOUTHERN WEST VIRGINIA  
 
CITY SKY/WX TMP DP RH WIND PRES REMARKS
 
BECKLEY CLOUDY 69 55 60 S9G17 30.03F  
LOGAN N/A 75 55 50 VRB7G16 29.94F  
BLUEFIELD CLOUDY 68 56 65 VRB6 30.06F  
LEWISBURG CLOUDY 68 58 70 CALM 30.06F  

 
 
WVZ047-010500-  
NORTHERN MOUNTAINS OF WEST VIRGINIA  
 
CITY SKY/WX TMP DP RH WIND PRES REMARKS
 
ELKINS CLEAR 71 53 52 S6 30.01S  

 
 
WVZ052-010500-  
EASTERN PANHANDLE OF WEST VIRGINIA  
 
CITY SKY/WX TMP DP RH WIND PRES REMARKS
 
MARTINSBURG CLEAR 70 61 73 SE7 29.97S  
PETERSBURG PTCLDY 75 60 60 E3 29.98S  

 
 
 
CLICK HERE TO GO TO PREVIOUS BULLETINS.

The Nexlab WV Page
The Nexlab OH Page
The Nexlab KY Page
The Nexlab VA Page Main Text Page